Regional Weather Roundup
Issued by NWS

Home | Current Version | Previous Version | Text Only | Print | Product List | Glossary On
Versions: 1 2 3 4 5 6 7 8 9 10 11 12 13 14 15 16 17 18 19 20 21 22 23 24 25 26 27
000
ASUS46 KPQR 181710
RWROR

OREGON REGIONAL WEATHER ROUNDUP
NATIONAL WEATHER SERVICE PORTLAND OR
900 AM PST WED JAN 18 2017

NOTE: "FAIR" INDICATES FEW OR NO CLOUDS BELOW 12,000 FEET WITH
NO SIGNIFICANT WEATHER AND/OR OBSTRUCTIONS TO VISIBILITY.

ORZ001>013-181800-
NORTHWEST OREGON


CITY           SKY/WX    TMP DP  RH WIND       PRES   REMARKS
ASTORIA        LGT RAIN  55  49  80 S23G39    29.33R
NEWPORT        LGT RAIN  52  50  93 S32G45    29.40S
PORTLAND       LGT RAIN  35  35 100 E13       29.47R FOG     WCI  26
VANCOUVER WA   LGT RAIN  36  34  92 VRB3      29.46R FOG
SCAPPOOSE      LGT RAIN  35  35 100 W3        29.44S FOG
HILLSBORO      LGT RAIN  51  49  92 S14G22    29.42R
AURORA         RAIN      51  48  89 SW9       29.45R FOG
MCMINNVILLE    LGT RAIN  52  48  86 S23G39    29.44R FOG
SALEM          LGT RAIN  54  47  77 S17G25    29.44R
CORVALLIS        N/A     54  48  82 S15G22    29.46S
EUGENE         PTSUNNY   54  48  80 S17       29.47F
$$

ORZ021-028-181800-
SOUTHWEST OREGON


CITY           SKY/WX    TMP DP  RH WIND       PRES   REMARKS
NORTH BEND     CLOUDY    57  52  82 S18G38    29.49R
BROOKINGS      LGT RAIN  52  50  93 SE21G26   29.57F
ROSEBURG       PTSUNNY   54  45  71 S10       29.52F
SEXTON SUMMIT  SNOW      37  37 100 SE16G29   29.56R VSB 1/4 WCI  28
MEDFORD        LGT RAIN  48  39  71 SE22      29.66F
$$

ORZ014>016-041-181800-
COLUMBIA GORGE


CITY           SKY/WX    TMP DP  RH WIND       PRES   REMARKS
TROUTDALE      LGT RAIN  35  31  85 E16G29    29.47R FOG     WCI  25
THE DALLES     MOSUNNY   24  20  84 SW6       29.66S FOG     WCI  17
$$

ORZ029>031-041-044-049-050-061>064-502-503-505>511-181800-
EASTERN OREGON


CITY           SKY/WX    TMP DP  RH WIND       PRES   REMARKS
REDMOND        MOSUNNY   41  31  67 S20G30    29.62F
BEND           MOSUNNY   43  34  70 SE7       29.62S
PRINEVILLE     CLOUDY    43  34  70 SE15      29.65R
KLAMATH FALLS  CLOUDY    37  30  75 SE9       29.76F WCI  30
LAKEVIEW       CLOUDY    36  28  75 S15       29.81F WCI  26
HERMISTON      CLOUDY    23  20  88 NW5       29.63F FOG     WCI  17
PENDLETON      CLOUDY    45  35  68 S15       29.59F
JOHN DAY       LGT RAIN  36  33  87 CALM      29.77F
MEACHAM        CLOUDY    26  20  77 VRB3      29.71F
LA GRANDE        N/A     27  23  86 SE28G40   29.87S VSB 1/2 WCI  11
BAKER CITY     SNOW      21  17  84 E22       29.96R VSB 1/4 WCI   5
BURNS          LGT SNOW  29  27  92 NE5       29.84F FOG     WCI  24
ROME             N/A     29  25  85 N8        29.88R WCI  21
ONTARIO        CLOUDY    14   9  80 CALM      30.11S HAZE
$$




USA.gov is the U.S. government's official web portal to all federal, state and local government web resources and services.